Location: Garwolin
(51.5400°N, 21.3800°E)
Time: 09:22:13
(UTC+01:00)

ISS - Visible Passes

Search period start: 26 March 2019 00:00
Search period end: 05 April 2019 01:00
Orbit: 408 x 411 km, 51.6° (Epoch: 26 March)

Date Brightness Start Highest point End Pass type
(mag) Time Alt. Az. Time Alt. Az. Time Alt. Az.
26 Mar -3.9 19:28:36 10° WSW 19:31:55 73° SSE 19:33:14 33° E visible
26 Mar -1.0 21:05:11 10° W 21:06:00 16° W 21:06:00 16° W visible
27 Mar -3.6 18:38:00 10° WSW 18:41:16 57° SSE 18:44:32 10° E visible
27 Mar -3.6 20:14:30 10° W 20:17:28 69° W 20:17:28 69° W visible
28 Mar -3.9 19:23:47 10° W 19:27:06 89° N 19:28:52 25° E visible
28 Mar -1.4 21:00:24 10° W 21:01:38 21° W 21:01:38 21° W visible
29 Mar -3.8 18:33:05 10° WSW 18:36:24 81° SSE 18:39:43 10° E visible
29 Mar -3.9 20:09:41 10° W 20:12:58 85° SW 20:12:58 85° SW visible
30 Mar -3.8 19:18:58 10° W 19:22:18 87° N 19:24:16 22° E visible
30 Mar -1.6 20:55:35 10° W 20:57:02 23° W 20:57:02 23° W visible
31 Mar -3.8 21:04:50 10° W 21:08:07 64° SSW 21:08:19 62° S visible
01 Apr -3.8 20:14:05 10° W 20:17:24 80° SSW 20:19:35 20° ESE visible
01 Apr -1.6 21:50:50 10° W 21:52:20 20° WSW 21:52:20 20° WSW visible
02 Apr -3.1 20:59:58 10° W 21:03:06 40° SSW 21:03:36 37° S visible
03 Apr -3.4 20:09:09 10° W 20:12:24 55° SSW 20:14:53 16° SE visible
03 Apr -1.3 21:46:25 10° WSW 21:47:39 14° WSW 21:47:39 14° WSW visible
04 Apr -2.1 20:55:13 10° W 20:57:55 23° SW 20:58:57 20° S visible
